CZ-11 R/B, 43161

Orbit data source: Space-Track

CZ-11 R/B, 43161 is space debris in SSO originally from a launch on Fri, 19 Jan 2018 UTC launched from the Jiuquan Satellite Launch Center, China (JSC). Debris objects in space refer to the collection of defunct objects orbiting the Earth. Examples of debris include non-operational satellites, rocket bodies, and fragments generated from explosions, collisions, or faulty payload assembly.

Loading next visibility...
Identifier
43161, 2018-008G
Orbit
SSO
Country
Flag of CNCN / PRC
Related business
Manufacturer
CALT
Mission
Spacecraft
Bus & Motor
CZ-11-4, Unknown motor
Mass
500 kg wet, 500 kg dry
Launch date (UTC)
2018-01-19 (8 years ago)
Launch vehicle
Unknown
Launch site
Jiuquan Satellite Launch Center, China (JSC)
Object type
Payload
Rocket body
Debris
Shape & HBR
Cyl, 0.8 m
Radar Cross Section
2.651 m², Large (>1 m²)

Expand to show TLE details & history
Last TLE update: 8 hours ago

TLE from 8 hours ago
0 CZ-11 R/B
1 43161U 18008G   26034.52483764  .00000519  00000-0  10161-3 0  9993
2 43161  98.2324  25.8608 0364055 128.8353 234.5928 14.32158164419537
Epoch: 2026-02-03T12:35Z
TLE epoch observation values (Epoch: 2026-02-03T12:35:45.972Z)
Latitude
-0°
Longitude
63.21472°
Altitude
944.703 km
Speed
7.298 km/s
True Right ascension
01h 43m 26s
True Declination
0° 00' 00"
Sunlit
Object was in daylight at epoch
Visualization orbit readout
Latitude
Unknown
Longitude
Unknown
Altitude
Unknown
Speed
Unknown
Apparent Right ascension
Unknown
Apparent Declination
Unknown
Sunlit
N/A
Visualization observer readout
Local Sidereal Time
22:52:15
Azimuth
Unknown
Elevation
Unknown
Doppler factor
Unknown
Orbital elements
Apogee altitude
1,042.296 km
Perigee altitude
520.985 km
Semi-major axis
7,159.777 km
Eccentricity
0.03641
Inclination
98.2324°
RAAN
25.8608°
Arg. of periapsis
128.8353°
True anomaly
231.28185°
Mean anomaly
234.5928°
Eccentric anomaly
232.92851°
Mean motion
3.58256 °/min
Orbital period
100.49 mins
BSTAR
0.00010161
Loading maneuver chart data...
Computing Atmospheric mass density...
Loading historical data...
Loading historical data...
Loading historical data...
Loading historical data...
Loading historical data...
Loading historical data...
Loading historical data...

Documentation

Showing up to 5 results
|